{"data":{"norad_id":66080,"intl_designator":"2025-235Y","name":"STARLINK-35325","alt_names":[],"object_type":"PAYLOAD","status":"ACTIVE","operator":null,"country":"US","launch_date":"2025-10-19","launch_site_code":"AFETR","launch_vehicle":null,"mission":null,"orbit_class":"UNKNOWN","rcs_meters":null,"size_class":null,"mass_kg":null,"dimensions":null,"purposes":["comms"],"wikipedia_slug":null,"has_3d_model":false,"image_url":null,"decayed_at":null,"tle_current":{"epoch":"2026-09-20T17:09:42.355584Z","epoch_age_seconds":84436,"freshness":"FRESH","line1":"1 66080U 25235Y   26263.71507356  .00010858  00000+0  33228-3 0  9992","line2":"2 66080  53.1461  56.3445 0001764  91.5921 268.5284 15.34376808 52821","mean_motion":15.34376808,"eccentricity":0.0001764,"inclination_deg":53.1461,"raan_deg":56.3445,"arg_perigee_deg":91.5921,"mean_anomaly_deg":268.5284,"bstar":0.00033228,"rev_number":5282,"period_min":93.849176583748,"perigee_km":461.5654362088,"apogee_km":463.97890896489,"semimajor_km":6840.9091725868,"source":"CELESTRAK","updated_at":"2026-09-21T09:00:35.798672Z"}}}